Dati Storici

Data ora Umidita' aria (%) Temperatura aria (°C) Rad globale (W/m²) Gonioanemometro (°) Tacoanemometro (m/s) Pioggia (mm)
20-06-2020 08:10 62 % 21.532 321.868 0.387 0 0
20-06-2020 08:00 62 % 21.148 12.896 -0.026 0 0
20-06-2020 07:50 64.2 % 21.354 289.24 0.144 0 0
20-06-2020 07:40 64.5 % 20.803 320.706 0.538 0 0
20-06-2020 07:30 66.7 % 20.206 273.451 1.568 0 0
20-06-2020 07:20 69.7 % 19.974 240.886 1.231 0 0
20-06-2020 07:10 71.1 % 19.546 290.728 1.095 0 0
20-06-2020 07:00 74.1 % 19.294 308.933 -0.021 0 0
20-06-2020 06:50 76.7 % 19.244 298.075 -0.022 0 0
20-06-2020 06:40 81.3 % 18.665 40.038 -0.018 0 0
20-06-2020 06:30 81.9 % 17.924 176.061 -0.015 0 0
20-06-2020 06:20 82.7 % 17.943 353.489 -0.017 0 0
20-06-2020 06:10 85.7 % 17.802 295.362 -0.016 0 0
20-06-2020 06:00 87.9 % 17.287 313.786 -0.014 0 0
20-06-2020 05:50 89.1 % 16.951 205.878 -0.008 0 0
20-06-2020 05:40 89.4 % 17.005 290.614 0.171 0 0
20-06-2020 05:30 93.9 % 17.288 172.115 -0.006 0 0
20-06-2020 05:20 96 % 16.31 312.993 0.002 0 0
20-06-2020 05:10 95.9 % 16.28 197.585 0.004 0 0
20-06-2020 05:00 96.1 % 16.357 259.786 1.583 0 0

I dati sono presentati in modo automatico a scopo informativo. In seguito a verifica i dati possono subire modifiche o essere invalidati e non riportati negli archivi definitivi.